Torna al catalogo

STARLINK-31269

AttivoComunicazioniVLEO
NORAD 58844·PAYLOAD·🇺🇸 United States

Lanciato Jan 24, 2024 da Vandenberg Space Force Base

Loading…

Prossimi Passaggi (prossime 24 ore)

TLE

AggiornatoSource: CelesTrak SupGP

Epoca: Sep 14, 2026, 13:41 UTC

1 58844C 24017U   26257.57062500  .00057145  00000+0  16886-2 0  2579
2 58844  53.1560 135.0927 0001187  89.1170   1.1677 15.34358509    17

Traccia STARLINK-31269 in tempo reale con AllMySat

Download on the App Store